Terminal Aerodrome Forecast
Issued by NWS Upton, NY

Home | Current Version | Previous Version | Text Only | Print | Product List | Glossary On
Versions: 1 2 3 4 5 6 7 8 9 10 11 12 13 14 15 16 17 18 19 20 21 22 23 24 25 26 27 28 29 30 31 32 33 34 35 36 37 38 39 40
000
FTUS41 KOKX 230233 AAB
TAFLGA
TAF AMD
KLGA 230233Z 2303/2324 06021G30KT 5SM BR OVC016
     FM231200 05027G35KT 5SM -RA BR OVC009
     FM231500 06029G48KT 2SM RA BR OVC007
     FM232100 06027G48KT 1SM +RA OVC005=

USA.gov is the U.S. government's official web portal to all federal, state and local government web resources and services.